Tracking 19176 objects as of 27-May-2018
HD Live streaming from Space Station
objects crossing your sky now

COSMOS 1226

Track COSMOS 1226 now!
10-day predictions
COSMOS 1226 is classified as:


NORAD ID: 12091
Int'l Code: 1980-099A
Perigee: 966.1 km
Apogee: 1,015.2 km
Inclination: 82.9 °
Period: 104.8 minutes
Semi major axis: 7361 km
RCS: 2.1045 m2 (large)
Launch date: December 10, 1980
Source: Commonwealth of Independent States (former USSR) (CIS)
Launch site: PLESETSK MISSILE AND SPACE COMPLEX (PKMTR)
aabbcc
Your satellite tracking list
Your tracking list is empty




NASA's NSSDC Master Catalog

Two Line Element Set (TLE):
1 12091U 80099A   18146.78718685  .00000021  00000-0  60005-5 0  9998
2 12091  82.9428  23.2329 0033384 349.4384  78.6267 13.74488641878651
Source of the keplerian elements: AFSPC